SR9NCI Weather Reports


time (UTC)temp
F
wind
direction
speed
knots
gust
knots
rain 1hr
in
rain 24hr
in
rain mn
in
humidity
%
barometer
mb
20260502200137 59 111 3.5 3.5 0.00 0.00 0.00
20260502195734 59 111 3.5 4.3 0.00 0.00 0.00
20260502195333 59 111 2.6 3.5 0.00 0.00 0.00
20260502194530 60 136 2.6 2.6 0.00 0.00 0.00
20260502194128 59 157 1.7 2.6 0.00 0.00 0.00
20260502193726 60 180 1.7 1.7 0.00 0.00 0.00
20260502193325 62 120 1.7 2.6 0.00 0.00 0.00
20260502192924 62 69 2.6 5.2 0.00 0.00 0.00
20260502192522 62 56 3.5 6.1 0.00 0.00 0.00
20260502192113 63 62 3.5 6.1 0.00 0.00 0.00
20260502191711 63 62 4.3 7.0 0.00 0.00 0.00
20260502191310 63 61 5.2 7.0 0.00 0.00 0.00
20260502190909 63 58 4.3 7.0 0.00 0.00 0.00
20260502190506 63 45 4.3 7.0 0.00 0.00 0.00
20260502190105 64 50 5.2 7.0 0.00 0.00 0.00
20260502185703 64 42 6.1 7.8 0.00 0.00 0.00
20260502185305 64 47 6.1 7.8 0.00 0.00 0.00
20260502184900 64 48 6.1 7.8 0.00 0.00 0.00
20260502184458 65 45 7.0 7.8 0.00 0.00 0.00
20260502184051 65 44 7.0 8.7 0.00 0.00 0.00
20260502183649 65 42 5.2 7.8 0.00 0.00 0.00
20260502183247 65 35 5.2 7.0 0.00 0.00 0.00
20260502182846 65 40 5.2 7.0 0.00 0.00 0.00
20260502182444 65 37 4.3 7.0 0.00 0.00 0.00
20260502182042 66 22 5.2 7.0 0.00 0.00 0.00
20260502181640 66 21 5.2 6.1 0.00 0.00 0.00
20260502181238 66 20 5.2 7.0 0.00 0.00 0.00
20260502180838 66 36 3.5 5.2 0.00 0.00 0.00
20260502180435 67 40 4.3 7.8 0.00 0.00 0.00
20260502170357 70 75 4.3 7.0 0.00 0.00 0.00
20260502163941 72 74 5.2 7.8 0.00 0.00 0.00
20260502163539 72 72 5.2 8.7 0.00 0.00 0.00
20260502163137 74 71 4.3 7.8 0.00 0.00 0.00
20260502162736 75 25 2.6 6.1 0.00 0.00 0.00
20260502162334 75 35 4.3 5.2 0.00 0.00 0.00
20260502161933 76 48 3.5 4.3 0.00 0.00 0.00
20260502161530 78 18 1.7 5.2 0.00 0.00 0.00
20260502161129 76 27 4.3 7.8 0.00 0.00 0.00
20260502160728 77 55 2.6 4.3 0.00 0.00 0.00
20260502160326 75 40 3.5 7.8 0.00 0.00 0.00
20260502152305 73 52 4.3 7.0 0.00 0.00 0.00
20260502151854 73 23 4.3 7.8 0.00 0.00 0.00
20260502151453 73 33 3.5 7.0 0.00 0.00 0.00
20260502151052 73 54 7.0 11.3 0.00 0.00 0.00
20260502150649 73 38 4.3 7.8 0.00 0.00 0.00
20260502150248 73 39 6.1 8.7 0.00 0.00 0.00
20260502130541 74 74 2.6 8.7 0.00 0.00 0.00
20260502130139 74 48 1.7 4.3 0.00 0.00 0.00
20260502123723 73 26 4.3 6.1 0.00 0.00 0.00
20260502123321 73 70 2.6 8.7 0.00 0.00 0.00
20260502122919 73 77 4.3 6.1 0.00 0.00 0.00
20260502122518 73 87 3.5 7.8 0.00 0.00 0.00
20260502122116 73 63 6.1 9.6 0.00 0.00 0.00
20260502121715 72 23 6.1 9.6 0.00 0.00 0.00
20260502121312 73 9 7.8 10.4 0.00 0.00 0.00
20260502120911 73 28 3.5 8.7 0.00 0.00 0.00
20260502120510 73 79 4.3 5.2 0.00 0.00 0.00
20260502120108 73 15 4.3 9.6 0.00 0.00 0.00
20260502115659 72 9 3.5 5.2 0.00 0.00 0.00
20260502115257 72 11 7.0 10.4 0.00 0.00 0.00
20260502114856 71 353 3.5 7.8 0.00 0.00 0.00
20260502114455 72 19 6.1 9.6 0.00 0.00 0.00
20260502114052 72 2 2.6 9.6 0.00 0.00 0.00
20260502113651 72 23 5.2 9.6 0.00 0.00 0.00
20260502112848 71 345 4.3 7.0 0.00 0.00 0.00
20260502112447 72 42 5.2 8.7 0.00 0.00 0.00
20260502112044 72 55 4.3 7.8 0.00 0.00 0.00
20260502111636 72 354 4.3 7.0 0.00 0.00 0.00
20260502111235 71 332 7.0 9.6 0.00 0.00 0.00
20260502110834 71 350 3.5 7.8 0.00 0.00 0.00
20260502110432 70 1 6.1 9.6 0.00 0.00 0.00
20260502110030 71 336 3.5 7.0 0.00 0.00 0.00
20260502105227 71 343 5.2 7.8 0.00 0.00 0.00
20260502104825 71 4 3.5 7.0 0.00 0.00 0.00
20260502104424 70 343 3.5 6.1 0.00 0.00 0.00
20260502104022 71 17 5.2 8.7 0.00 0.00 0.00
20260502103614 71 359 3.5 7.0 0.00 0.00 0.00
20260502103211 71 42 1.7 4.3 0.00 0.00 0.00
20260502102810 71 10 3.5 6.1 0.00 0.00 0.00
20260502102409 71 8 5.2 9.6 0.00 0.00 0.00
20260502102007 70 356 3.5 7.8 0.00 0.00 0.00
20260502101606 69 328 3.5 7.0 0.00 0.00 0.00
20260502101203 70 31 1.7 5.2 0.00 0.00 0.00
20260502100802 69 73 8.7 11.3 0.00 0.00 0.00
20260502091526 69 82 7.0 11.3 0.00 0.00 0.00
20260502091124 69 55 7.0 10.4 0.00 0.00 0.00
20260502090723 69 18 4.3 8.7 0.00 0.00 0.00
20260502090321 69 180 0.9 3.5 0.00 0.00 0.00
20260502071417 64 225 0.0 1.7 0.00 0.00 0.00
20260502071015 66 202 0.9 2.6 0.00 0.00 0.00
20260502070613 68 189 0.9 3.5 0.00 0.00 0.00
20260502070212 71 157 0.9 2.6 0.00 0.00 0.00
20260502065810 65 146 1.7 3.5 0.00 0.00 0.00
20260502065409 64 135 0.9 2.6 0.00 0.00 0.00
20260502065007 63 135 0.0 0.9 0.00 0.00 0.00
20260502064605 64 135 0.9 2.6 0.00 0.00 0.00
20260502064204 65 135 0.9 1.7 0.00 0.00 0.00
20260502063802 65 135 1.7 2.6 0.00 0.00 0.00
20260502063354 63 135 0.0 1.7 0.00 0.00 0.00
20260502062951 64 135 0.0 0.0 0.00 0.00 0.00
20260502062550 65 135 0.0 1.7 0.00 0.00 0.00
20260502062149 64 135 0.0 2.6 0.00 0.00 0.00
20260502061748 65 135 0.0 1.7 0.00 0.00 0.00
20260502061345 64 135 0.0 0.9 0.00 0.00 0.00
20260502060944 63 135 0.9 1.7 0.00 0.00 0.00
20260502060543 62 135 0.0 1.7 0.00 0.00 0.00
20260502060142 62 135 1.7 2.6 0.00 0.00 0.00
20260502055738 62 135 0.9 1.7 0.00 0.00 0.00
20260502055330 60 135 0.0 1.7 0.00 0.00 0.00
20260502054929 61 135 0.0 1.7 0.00 0.00 0.00
20260502054528 60 135 0.9 1.7 0.00 0.00 0.00
20260502054127 60 135 0.9 1.7 0.00 0.00 0.00
20260502053724 59 135 0.9 1.7 0.00 0.00 0.00
20260502053323 58 135 0.0 1.7 0.00 0.00 0.00
20260502052921 58 135 0.0 1.7 0.00 0.00 0.00
20260502052520 58 135 0.9 1.7 0.00 0.00 0.00
20260502052118 56 135 0.0 0.9 0.00 0.00 0.00
20260502051716 56 135 0.9 3.5 0.00 0.00 0.00
20260502051308 54 135 0.9 2.6 0.00 0.00 0.00
20260502050906 55 135 1.7 4.3 0.00 0.00 0.00
20260502050504 54 135 2.6 3.5 0.00 0.00 0.00
20260502045701 54 135 0.0 1.7 0.00 0.00 0.00
20260502045300 53 135 0.0 0.0 0.00 0.00 0.00
20260502044857 53 135 0.0 0.9 0.00 0.00 0.00
20260502044456 53 135 1.7 2.6 0.00 0.00 0.00
20260502044055 52 135 0.0 1.7 0.00 0.00 0.00
20260502043653 52 135 0.9 1.7 0.00 0.00 0.00
20260502043245 51 135 0.0 2.6 0.00 0.00 0.00
20260502042842 51 135 1.7 3.5 0.00 0.00 0.00
20260502042441 52 136 2.6 4.3 0.00 0.00 0.00
20260502042041 51 157 1.7 3.5 0.00 0.00 0.00
20260502041639 50 139 1.7 5.2 0.00 0.00 0.00
20260502041237 50 153 1.7 3.5 0.00 0.00 0.00
20260502040835 49 157 0.9 1.7 0.00 0.00 0.00
20260502040434 50 157 1.7 4.3 0.00 0.00 0.00
20260502040033 49 169 2.6 4.3 0.00 0.00 0.00
20260502035630 47 161 2.6 5.2 0.00 0.00 0.00
20260502035222 48 157 2.6 4.3 0.00 0.00 0.00
20260502034820 47 157 2.6 4.3 0.00 0.00 0.00
20260502034419 48 157 2.6 3.5 0.00 0.00 0.00
20260502034017 48 157 3.5 5.2 0.00 0.00 0.00
20260502033615 48 157 2.6 3.5 0.00 0.00 0.00
20260502033214 46 157 1.7 3.5 0.00 0.00 0.00
20260502032812 46 157 2.6 3.5 0.00 0.00 0.00
20260502032411 47 157 0.9 2.6 0.00 0.00 0.00
20260502032009 48 157 1.7 3.5 0.00 0.00 0.00
20260502031607 48 157 2.6 6.1 0.00 0.00 0.00
20260502031159 47 157 2.6 4.3 0.00 0.00 0.00
20260502030757 48 157 2.6 4.3 0.00 0.00 0.00
20260502030355 46 157 2.6 4.3 0.00 0.00 0.00
20260502025553 47 157 1.7 3.5 0.00 0.00 0.00
20260502025152 47 157 1.7 3.5 0.00 0.00 0.00
20260502024748 46 157 0.9 2.6 0.00 0.00 0.00
20260502024347 47 157 1.7 2.6 0.00 0.00 0.00
20260502023946 47 157 2.6 3.5 0.00 0.00 0.00
20260502023544 48 157 2.6 4.3 0.00 0.00 0.00
20260502023135 49 140 1.7 4.3 0.00 0.00 0.00
20260502022733 49 157 3.5 5.2 0.00 0.00 0.00
20260502022332 47 157 1.7 4.3 0.00 0.00 0.00
20260502021931 47 157 1.7 2.6 0.00 0.00 0.00
20260502021529 47 157 0.9 2.6 0.00 0.00 0.00
20260502021126 48 157 2.6 4.3 0.00 0.00 0.00
20260502020724 47 157 1.7 5.2 0.00 0.00 0.00
20260502020323 47 157 1.7 3.5 0.00 0.00 0.00
20260502015922 47 157 0.9 3.5 0.00 0.00 0.00
20260502015519 49 157 2.6 3.5 0.00 0.00 0.00
20260502015111 49 136 2.6 5.2 0.00 0.00 0.00
20260502014308 50 135 1.7 3.5 0.00 0.00 0.00
20260502013906 50 135 1.7 3.5 0.00 0.00 0.00
20260502013504 50 135 2.6 4.3 0.00 0.00 0.00
20260502013103 50 135 2.6 4.3 0.00 0.00 0.00
20260502012701 50 135 2.6 3.5 0.00 0.00 0.00
20260502012259 49 135 1.7 4.3 0.00 0.00 0.00
20260502011858 49 135 1.7 2.6 0.00 0.00 0.00
20260502011456 48 135 1.7 1.7 0.00 0.00 0.00
20260502011048 48 135 1.7 3.5 0.00 0.00 0.00
20260502010646 48 143 1.7 3.5 0.00 0.00 0.00
20260502010244 48 157 1.7 1.7 0.00 0.00 0.00
20260502005843 48 157 0.9 1.7 0.00 0.00 0.00
20260502005441 49 157 0.9 2.6 0.00 0.00 0.00
20260502005040 49 157 0.9 1.7 0.00 0.00 0.00
20260502004637 50 157 0.9 3.5 0.00 0.00 0.00
20260502004236 49 157 0.9 1.7 0.00 0.00 0.00
20260502003835 49 157 0.9 1.7 0.00 0.00 0.00
20260502003433 49 157 0.9 2.6 0.00 0.00 0.00
20260502003024 50 157 1.7 2.6 0.00 0.00 0.00
20260502002622 50 157 2.6 4.3 0.00 0.00 0.00
20260502002221 51 157 2.6 4.3 0.00 0.00 0.00
20260502001820 52 172 1.7 3.5 0.00 0.00 0.00
20260502001417 51 164 1.7 3.5 0.00 0.00 0.00
20260502001017 51 135 1.7 3.5 0.00 0.00 0.00
20260502000615 50 135 0.9 1.7 0.00 0.00 0.00
20260502000214 51 135 1.7 3.5 0.00 0.00 0.00
20260501235813 50 135 1.7 4.3 0.00 0.00 0.00
20260501235410 51 135 1.7 3.5 0.00 0.00 0.00
20260501235002 51 135 1.7 3.5 0.00 0.00 0.00
20260501234600 51 135 1.7 3.5 0.00 0.00 0.00
20260501234159 52 135 2.6 4.3 0.00 0.00 0.00
20260501233757 51 135 1.7 2.6 0.00 0.00 0.00
20260501233355 52 135 0.9 1.7 0.00 0.00 0.00
20260501232954 51 135 0.9 1.7 0.00 0.00 0.00
20260501232552 53 135 1.7 3.5 0.00 0.00 0.00
20260501232150 53 135 0.9 3.5 0.00 0.00 0.00
20260501231749 53 135 1.7 4.3 0.00 0.00 0.00
20260501231347 52 135 0.9 2.6 0.00 0.00 0.00
20260501230939 53 135 0.9 2.6 0.00 0.00 0.00
20260501230536 52 157 0.0 0.9 0.00 0.00 0.00
20260501230135 52 157 0.0 0.0 0.00 0.00 0.00
20260501225734 52 157 0.0 1.7 0.00 0.00 0.00
20260501225332 52 157 0.9 2.6 0.00 0.00 0.00
20260501224931 53 157 0.9 1.7 0.00 0.00 0.00
20260501224528 53 157 0.9 1.7 0.00 0.00 0.00
20260501224127 53 157 0.9 1.7 0.00 0.00 0.00
20260501223726 53 157 0.0 1.7 0.00 0.00 0.00
20260501223325 53 157 0.9 3.5 0.00 0.00 0.00
20260501222915 54 157 0.9 2.6 0.00 0.00 0.00
20260501222514 53 157 0.9 3.5 0.00 0.00 0.00
20260501222113 53 157 0.0 0.0 0.00 0.00 0.00
20260501221712 54 157 0.9 1.7 0.00 0.00 0.00
20260501221309 55 98 1.7 3.5 0.00 0.00 0.00
20260501220908 55 21 1.7 2.6 0.00 0.00 0.00
20260501220506 54 21 0.9 0.9 0.00 0.00 0.00
20260501220105 55 21 0.0 0.0 0.00 0.00 0.00
20260501215703 55 21 0.0 0.9 0.00 0.00 0.00
20260501215301 55 21 0.0 1.7 0.00 0.00 0.00
20260501214853 55 4 0.0 0.0 0.00 0.00 0.00
20260501214451 55 0 0.0 0.0 0.00 0.00 0.00
20260501214050 55 0 0.0 0.0 0.00 0.00 0.00
20260501213647 54 0 0.0 0.0 0.00 0.00 0.00
20260501213245 54 0 0.0 0.0 0.00 0.00 0.00
20260501212844 55 0 0.0 0.0 0.00 0.00 0.00
20260501212442 55 0 0.0 0.0 0.00 0.00 0.00
20260501212040 55 0 0.0 0.0 0.00 0.00 0.00
20260501211638 56 0 0.0 0.0 0.00 0.00 0.00
20260501211236 57 0 0.0 0.9 0.00 0.00 0.00
20260501210828 57 0 0.0 0.9 0.00 0.00 0.00
20260501210425 58 0 0.9 1.7 0.00 0.00 0.00
20260501210024 58 0 0.9 1.7 0.00 0.00 0.00
20260501205623 58 0 0.0 0.0 0.00 0.00 0.00
20260501205221 58 0 0.0 1.7 0.00 0.00 0.00
20260501204819 58 0 0.9 1.7 0.00 0.00 0.00
20260501204417 58 0 0.9 1.7 0.00 0.00 0.00
20260501204016 58 0 0.0 1.7 0.00 0.00 0.00
20260501203615 58 0 0.0 0.0 0.00 0.00 0.00
20260501203213 60 0 0.0 0.0 0.00 0.00 0.00
20260501202804 60 0 1.7 3.5 0.00 0.00 0.00
20260501202402 60 21 1.7 2.6 0.00 0.00 0.00
20260501202001 60 8 2.6 4.3 0.00 0.00 0.00
20260501201600 60 2 1.7 3.5 0.00 0.00 0.00
20260501201157 60 12 2.6 4.3 0.00 0.00 0.00
20260501200756 61 21 2.6 4.3 0.00 0.00 0.00